Flag for U.S.A. Weather past 2 weeks in Chesapeake, Virginia, U.S.A.

Now
55 °F

Fog.


Feels Like: 55 °F
Forecast: 57 / 75 °F
Wind: No wind

Location: Chesapeake Municipal Airport

Current Time: Apr 19, 2015 at 4:44:23 AM

Latest Report: Apr 19, 2015 at 4:15 AM


Visibility: 2 mi

Pressure: 30.02 "Hg

Humidity: 94%

Dew point: 54 °F

Location of ChesapeakeLocation

Historic Weather in Chesapeake — Graph

°F

Chesapeake temperature yesterday

Maximum temperature yesterday: 82 °F (at 2:55 PM)
Minimum temperature yesterday: 61 °F (at 2:55 AM)
Average temperature yesterday: 70 °F

Past Weeks' High & Low Weather Summary

 TemperatureHumidityPressure
High86 °F (Apr 10, 2:15 PM)100% (Apr 5, 4:35 AM)30.40 "Hg (Apr 5, 4:35 AM)
Low34 °F (Apr 5, 4:55 AM)18% (Apr 4, 5:15 PM)29.74 "Hg (Apr 4, 3:35 AM)
Average63 °F70%30.17 "Hg
* Reported Apr 4 3:15 AM — Apr 19 3:15 AM, Chesapeake, Weather by CustomWeather, © 2015

Note: Actual official high and low records may vary slightly from our data, if they occured in-between our weather recording intervals... More about our weather records

Advertising

Chesapeake weather history for previous 24 hours

 ConditionsComfort  
Time TempWeatherWind HumidityBarometerVisibility
3:15 AM
Sun, Apr 19
55 °FFog.No wind100%30.02 "Hg1 mi
2:55 AM55 °FFog.No wind100%30.02 "Hg2 mi
2:35 AM55 °FFog.No wind94%30.03 "Hg1 mi
2:15 AM57 °FFog.No wind100%30.03 "Hg0 mi
1:55 AM57 °FFog.No wind94%30.03 "Hg1 mi
1:35 AM57 °FFog.No wind94%30.04 "Hg1 mi
1:15 AM57 °FFog.No wind100%30.04 "Hg0 mi
12:55 AM57 °FFog.No wind100%30.03 "Hg0 mi
12:35 AM57 °FFog.No wind100%30.04 "Hg1 mi
12:15 AM57 °FFog.No wind100%30.04 "Hg1 mi
11:15 PM
Sat, Apr 18
61 °FClear.No wind94%30.03 "Hg10 mi
10:55 PM63 °FClear.No wind94%30.03 "Hg10 mi
10:35 PM63 °FClear.No wind94%30.03 "Hg10 mi
10:15 PM63 °FClear.5 mph94%30.02 "Hg10 mi
9:55 PM63 °FClear.No wind94%30.02 "Hg10 mi
9:15 PM64 °FClear.No wind94%30.02 "Hg10 mi
8:55 PM64 °FClear.No wind94%30.02 "Hg10 mi
8:35 PM66 °FSunny.No wind88%30.01 "Hg10 mi
8:15 PM66 °FSunny.No wind88%30.00 "Hg10 mi
7:55 PM68 °FSunny.5 mph83%29.99 "Hg10 mi
7:15 PM72 °FSunny.12 mph73%29.98 "Hg10 mi
6:55 PM73 °FSunny.9 mph69%29.97 "Hg10 mi
6:35 PM75 °FSunny.10 mph65%29.97 "Hg10 mi
6:15 PM77 °FSunny.8 mph61%29.97 "Hg10 mi
5:55 PM79 °FSunny.8 mph58%29.97 "Hg10 mi
5:15 PM81 °FSunny.8 mph54%29.96 "Hg10 mi
4:55 PM81 °FScattered clouds.8 mph54%29.95 "Hg10 mi
4:35 PM81 °FScattered clouds.8 mph54%29.95 "Hg10 mi
4:15 PM82 °FSunny.10 mph51%29.95 "Hg10 mi
3:55 PM82 °FSunny.10 mph48%29.95 "Hg10 mi
3:15 PM81 °FScattered clouds.7 mph48%29.95 "Hg10 mi
2:55 PM82 °FSunny.8 mph45%29.95 "Hg10 mi
2:35 PM81 °FSunny.10 mph51%29.96 "Hg10 mi
2:15 PM81 °FSunny.7 mph51%29.96 "Hg10 mi
1:55 PM81 °FSunny.8 mph51%29.98 "Hg10 mi
1:35 PM81 °FSunny.8 mph54%29.98 "Hg10 mi
1:15 PM81 °FSunny.7 mph54%29.98 "Hg10 mi
12:55 PM79 °FSunny.9 mph58%29.99 "Hg10 mi
12:35 PM79 °FSunny.10 mph58%30.00 "Hg10 mi
12:15 PM79 °FSunny.10 mph58%30.00 "Hg10 mi
11:55 AM79 °FSunny.7 mph58%30.00 "Hg10 mi
11:15 AM79 °FSunny.8 mph61%30.00 "Hg10 mi
10:55 AM77 °FSunny.8 mph65%30.00 "Hg10 mi
10:35 AM75 °FSunny.7 mph69%30.00 "Hg10 mi
10:15 AM73 °FSunny.3 mph74%30.00 "Hg10 mi
9:55 AM72 °FSunny.3 mph78%30.00 "Hg10 mi
9:35 AM72 °FSunny.No wind78%30.00 "Hg10 mi
9:15 AM72 °FSunny.3 mph83%29.99 "Hg10 mi
8:55 AM70 °FSunny.3 mph88%30.00 "Hg10 mi
8:35 AM70 °FSunny.No wind88%30.00 "Hg10 mi
8:15 AM66 °FScattered clouds.No wind100%30.00 "Hg10 mi
7:55 AM64 °FSunny.No wind100%30.01 "Hg10 mi
7:35 AM64 °FFog.No wind94%30.00 "Hg5 mi
7:15 AM64 °FPassing clouds.No wind94%30.01 "Hg7 mi
6:55 AM63 °FFog.No wind100%30.00 "Hg5 mi
6:15 AM63 °FFog.No wind100%29.98 "Hg5 mi
5:55 AM63 °FFog.No wind100%29.97 "Hg5 mi
5:35 AM63 °FFog.No wind100%29.97 "Hg5 mi
5:15 AM63 °FFog.3 mph94%29.96 "Hg1 mi
4:55 AM63 °FFog.No wind94%29.96 "Hg1 mi
4:35 AM61 °FFog.No wind100%29.96 "Hg1 mi
4:15 AM61 °FFog.No wind100%29.96 "Hg1 mi
Weather by CustomWeather, © 2015

See weather overviewHow to use our weather pages